Location: Montague
(41.3030°N, 74.7940°W)
Time: 07:06:53
(UTC-04:00)

Daily predictions for brighter satellites

Satellite Brightness Start Highest point End
(mag) Time Altitude Azimuth Time Altitude Azimuth Time Altitude Azimuth
FengYun 1-2 T 4.4 19:38:11 10° SSE 19:43:36 54° ENE 19:49:05 10° N
NOAA 12 4.4 19:42:30 10° S 19:47:49 74° WSW 19:53:08 10° NNW
H-2A R/B 3.4 19:44:14 10° SE 19:47:49 37° ENE 19:51:28 10° N
Spot 2 Rocket 4.0 19:43:42 10° SE 19:48:28 42° ENE 19:53:16 10° N
Tiangong 1 2.1 19:48:27 10° W 19:51:12 36° SSW 19:53:55 10° SE
Cosmos 1707 4.0 19:49:01 10° NNW 19:52:46 46° W 19:56:29 10° SSW
Abrixas 2.9 19:50:23 10° NW 19:53:08 44° NNE 19:55:43 11° E
Meteor 1-24 Rocket 3.7 19:48:27 10° N 19:53:58 82° E 19:59:41 10° S
Cosmos 2082 Rocket 3.1 19:49:05 10° N 19:54:04 30° NE 19:59:00 10° ESE
Cosmos 1812 Rocket 3.6 19:50:56 10° S 19:55:21 87° W 19:59:46 10° N
Cosmos 1076 Rocket 4.5 19:52:41 10° NNE 19:56:20 27° ENE 19:59:56 10° SE
Cosmos 1758 4.1 19:53:12 10° SSE 19:56:39 29° E 20:00:08 10° NNE
Helios 1B rocket 3.7 19:53:45 10° NE 19:56:47 20° E 19:59:47 10° SE
Lacrosse 5 2.0 19:51:48 10° SW 19:56:54 82° NW 20:01:59 10° NE
Cosmos 990 Rocket 4.2 19:51:56 10° SSW 19:57:11 81° WNW 20:02:27 10° NNE
FREGAT/IRIS 3.6 19:58:24 10° S 20:01:24 51° W 20:04:24 10° NNW
Cosmos 1821 Rocket 4.3 19:55:57 10° SSW 20:02:20 77° W 20:08:42 10° N
Lacrosse 4 Rocket 3.5 20:00:56 10° WSW 20:04:29 29° NW 20:08:03 10° N
Cosmos 1953 3.0 20:00:57 10° SSE 20:04:37 33° E 20:08:17 10° NNE
Envisat 4.2 20:02:47 10° ESE 20:06:42 24° ENE 20:10:41 10° NNE
GP-B 4.1 20:04:34 10° SE 20:08:18 27° E 20:12:02 10° NNE
USA 186 2.4 20:08:21 18° E 20:08:45 19° ENE 20:10:27 10° NNE
Helios 1A 3.8 20:06:57 10° SE 20:10:39 32° ENE 20:14:24 10° N
Cosmos 1766 Rocket 4.5 20:07:48 10° NNE 20:11:46 30° ENE 20:15:22 12° SE
CZ-3 Stage 3 4.4 19:14:26 10° WSW 20:12:47 56° S 20:20:18 15° ESE
Cosmos 1271 Rocket 4.1 20:10:55 10° SE 20:13:56 21° E 20:16:58 10° NE
Resurs 01 Rocket 1.5 20:09:58 10° SSE 20:14:22 77° ENE 20:18:49 10° N
Cosmos 1125 Rocket 3.7 20:09:33 10° S 20:14:31 48° ESE 20:19:32 10° NNE
Cosmos 1766 3.8 20:12:21 10° SSW 20:16:11 61° W 20:20:03 10° N
Cosmos 1048 Rocket 4.3 20:13:00 10° N 20:17:55 44° ENE 20:22:08 14° SE
Geosat 4.1 20:15:19 10° NE 20:20:12 51° ESE 20:25:04 10° S
Cosmos 1605 Rocket 4.0 20:14:09 10° S 20:20:23 82° E 20:26:47 10° N
Cosmos-2242 3.8 20:18:57 10° SSE 20:22:38 30° E 20:26:20 10° NNE
Lacrosse 5 rocket 2.7 20:21:42 10° NNW 20:24:57 23° NNE 20:26:41 17° ENE
ERS-1 Rocket 4.4 20:23:22 17° E 20:24:59 20° ENE 20:28:32 10° NNE
Fregat R/B Cluster 11 4.3 20:20:27 10° SSW 20:27:10 63° ESE 20:30:35 10° NE
SeaSat 1 3.1 20:23:56 10° SSE 20:28:45 56° WSW 20:33:37 10° NW
Cosmos 1674 3.1 20:26:24 10° N 20:29:59 40° ENE 20:31:54 23° SE
SAR-Lupe-4 3.5 20:31:34 16° SSE 20:34:16 63° ENE 20:37:49 10° N
Cosmos 2123 Rocket 4.5 20:28:10 10° NNW 20:34:25 64° W 20:40:36 10° S
RESURS DK-1 4.3 20:35:42 10° NW 20:39:15 28° WSW 20:42:48 10° SSW
Cosmos 2344 4.3 20:35:01 10° SW 20:42:33 58° NW 20:51:14 10° NNE
CZ-2D R/B 3.6 20:39:18 10° S 20:43:07 65° W 20:47:00 10° NNW
Cosmos 1743 Rocket 4.4 20:39:21 10° NNE 20:43:17 30° ENE 20:43:50 29° E
Cosmos 1802 Rocket 4.3 20:38:03 10° SSE 20:43:42 41° E 20:49:24 10° NNE
BREEZE-M DEB (TANK) 4.0 20:42:19 10° NW 20:44:08 19° NNE 20:44:40 18° NE
Meteor 1-21 Rocket 4.2 20:38:19 10° N 20:44:11 82° E 20:50:05 10° SSE
Meteor 1-29 3.0 20:42:34 10° NNE 20:45:59 55° E 20:48:19 19° S
CZ-3B DEB 3.7 20:37:14 10° WSW 20:47:16 46° NW 20:52:01 10° NE
Cosmos 1805 4.2 20:44:26 10° SSW 20:48:12 50° W 20:52:02 10° N
Cosmos 1818 3.7 20:45:21 10° NW 20:50:47 71° WSW 20:54:41 19° SSE
GPS 2-05 Rocket1 4.1 20:48:24 10° SW 20:51:22 27° S 20:51:22 27° S
COSMOS 2487 2.3 20:48:31 10° NNW 20:52:07 86° ENE 20:53:15 41° SSE
ALOS 4.4 20:48:38 10° SSW 20:52:36 28° W 20:56:37 10° NW
Cosmos 2251 Rocket 4.5 20:48:08 10° N 20:52:46 29° ENE 20:53:40 28° E
SAR-Lupe-1 4.0 20:51:14 26° SSE 20:53:08 86° WSW 20:56:44 10° NNW
Cosmos 1269 Rocket 4.0 20:51:44 10° NNW 20:57:02 82° WSW 21:00:49 20° SSE
Cosmos 2061 Rocket 4.1 20:50:53 10° S 20:57:07 59° E 21:03:25 10° NNE
Meteor 1-4 Rocket 3.7 20:56:20 10° SSW 20:59:38 41° WNW 21:02:58 10° N
Timation 2 Rocket 3.8 20:55:47 10° NNW 21:02:08 82° ENE 21:05:25 29° SSE
Cosmos 1833 Rocket 2.6 20:56:53 10° NNW 21:02:32 90° W 21:05:39 28° SSE
Cosmos 1470 2.6 21:00:38 13° S 21:04:10 87° E 21:08:10 10° N
Cosmos 1408 Rocket 3.7 21:00:15 10° NNW 21:04:44 74° W 21:07:46 20° S
Cosmos 2278 Rocket 4.0 21:03:21 10° WSW 21:08:22 32° WNW 21:13:25 10° N
Cosmos 1340 Rocket 2.6 21:07:41 10° N 21:11:45 84° E 21:12:09 70° SSE
CZ-4B DEB 3.2 21:12:02 54° WSW 21:12:05 55° W 21:15:09 10° NNW
Cosmos 372 Rocket 4.3 21:07:06 10° SSW 21:12:10 67° WNW 21:17:19 10° NNE
Cosmos 1733 3.3 21:10:59 24° SSW 21:13:13 76° W 21:17:07 10° N
Cosmos 1459 Rocket 3.9 21:07:47 10° S 21:14:04 86° E 21:20:17 10° N
USA 215 3.1 21:10:35 10° NE 21:17:06 69° SE 21:23:35 10° SW
Cosmos 1842 Rocket 4.2 21:18:20 40° NE 21:18:20 40° NE 21:21:25 10° NNE
ATLAS 5 CENTAUR R/B 1.8 21:14:48 10° SW 21:19:29 80° NW 21:24:36 10° NNE
Cosmos 2173 Rocket 3.9 21:13:40 10° S 21:19:51 88° W 21:26:09 10° N
Cosmos 158 Rocket 4.4 21:15:01 10° NNW 21:20:04 61° WSW 21:22:45 28° S
ISS -1.8 21:17:07 10° SW 21:18:25 22° SW 21:18:25 22° SW
Cosmos 2151 4.2 21:20:43 10° N 21:23:14 30° NNE 21:23:14 30° NNE
Cosmos 1867 4.5 21:21:20 10° SW 21:26:36 49° NW 21:31:56 10° NNE
Helios 1B rocket 4.1 21:28:26 10° N 21:32:09 33° WNW 21:35:51 10° SW
Meteor 1-11 4.1 21:31:00 10° N 21:36:35 67° ENE 21:36:36 67° E
Cosmos 494 Rocket 3.9 21:32:29 10° NNW 21:37:19 68° NE 21:37:19 68° NE
Cosmos 2082 Rocket 3.3 21:32:58 10° NW 21:38:15 41° WSW 21:41:10 23° SSW
Lacrosse 5 4.1 21:36:36 10° WNW 21:40:33 22° NNW 21:44:30 10° NNE
SPOT 5 3.5 21:45:02 50° NE 21:45:02 50° NE 21:49:25 10° N
Meteor 2-17 Rocket 4.5 21:40:14 22° SSW 21:44:24 79° W 21:50:34 10° N
Envisat 4.1 21:42:59 25° SSW 21:45:27 42° W 21:50:16 10° NNW
Cosmos 1939 Rocket 4.1 21:45:32 37° WSW 21:45:58 38° W 21:49:53 10° NNW
Meteor 1-16 Rocket 4.2 21:44:16 45° SSW 21:46:13 85° W 21:52:11 10° N
USA 267 3.9 21:48:09 38° ENE 21:49:29 43° NNE 21:55:35 10° NW
MetOp-A 4.1 21:50:03 70° NNE 21:50:03 70° NNE 21:54:56 10° N
ARGOS 3.7 21:51:33 47° NNE 21:51:33 47° NNE 21:55:41 10° N
H-2A R/B 3.4 21:52:51 28° NNE 21:52:51 28° NNE 21:55:52 10° N
Cosmos 2016 Rocket 4.2 21:47:02 19° SSW 21:51:38 69° W 21:57:48 10° N
Cosmos 1725 Rocket 3.9 21:59:08 74° SSW 21:59:46 86° W 22:06:00 10° N
Terra 4.1 22:04:46 15° NNE 22:04:46 15° NNE 22:05:45 10° NNE
ERS-1 Rocket 3.6 22:03:22 52° W 22:03:22 52° W 22:08:17 10° NNW
Lacrosse 5 rocket 3.4 22:00:39 10° NW 22:02:25 24° WNW 22:02:25 24° WNW
Tsikada Rocket 4.1 22:11:20 10° NNW 22:17:28 69° W 22:17:28 69° W
Cosmos 2369 Rocket 4.4 22:34:54 15° NNE 22:34:54 15° NNE 22:35:50 10° NNE
USA 215 4.3 22:53:49 10° NE 22:59:52 42° NNW 23:05:53 10° W
